sat.trackr.live / text

‹ back to catalog

STARLINK-33663

NORAD 63652 · 2025-083U

PAYLOAD ACTIVE UNKNOWN

§ Identity

Operator
Country
US
Launch date
2025-04-25
Launch site
AFETR
Launch vehicle
Mass (kg)
RCS (m²)

Purposes: comms

External: N2YO · Heavens-Above · Gunter

§ Orbital elements

Epoch: 2026-09-20T05:51:05.388768Z

Period
94.27 min
Inclination
43.0030°
Eccentricity
0.0001519
Mean motion
15.27593197 rev/d
Perigee alt
482.0 km
Apogee alt
484.1 km
Semi-major
6,861.1 km
B*
6.4003e-4
RAAN
346.2670°
Arg perigee
274.6567°
Mean anomaly
85.4111°
Rev number
7,982

§ Raw data

STARLINK-336631 63652U 25083U   26263.24381237  .00017399  00000+0  64003-3 0  99932 63652  43.0030 346.2670 0001519 274.6567  85.4111 15.27593197 79820

JSON: /api/v1/satellites/63652 · /tle

For live sub-satellite position, see the globe view (requires WebGL).

§ Visibility from observer

Set your observer location to see the next 7 days of passes ≥ 10°. The values pass through the URL so the page stays shareable.

No JS? Fill the form by hand. The geolocation button needs JavaScript.